COSMOS 2533

导读 | 豆包AI

COSMOS 2533是独联体(CIS)于2018年12月21日发射的军用卫星,隶属于俄罗斯"宇宙"(COSMOS)系列卫星项目。作为俄罗斯机密军事航天任务的组成部分,该卫星入轨后始终保持稳定运行,主要承担空间态势感知与技术验证任务。依托苏联解体后延续的航天体系,这款卫星延续了俄罗斯在低轨军事星座的部署布局,服务于国防监测与航天技术研发需求,至今仍在轨执行既定任务。

基本信息
目录编号:
43867
目录名称:
COSMOS 2533
国际标识:
2018-107A
轨道中心:
EARTH
卫星名称:
COSMOS 2533
卫星全名:
--
卫星状态:
在轨 (已飞行2630 天)
发射日期:
2018-12-21 UTC
国别 :
俄罗斯(独联体) (CIS)
星等 :
--
轨道信息
数据来源 国际轨道数据 AOE轨道数据
星历时间 2026-03-04T10:27:22+0800
5小时前
查看轨道信息
2026-03-04T07:00:00+0800
9小时前
查看轨道信息
半长轴 42163.551km 42165.037km
偏心率 0.0000209 0.0000038
轨道倾角 0.014° 0.022°
近地点辐角 352.510° 81.891°
升交点赤经 118.020° 111.332°
平近点角 158.140° 23.451°
近地点 35784.532km 35786.739km
远地点 35786.296km 35787.061km
周期 1436.037分钟 1436.112分钟
每日圈数 1.00276 1.002707
详细信息
使用方式:
暂无
2D轨道图
3D轨道图
轨道高度分析图
轨道倾角分析图
轨道综合分析图
查看轨道综合分析图